Location: North Evanston
(42.0634°N, 87.6976°W)
Time: 21:16:58
(UTC+00:00)

Transit 2A - Pass Details

Date: 16 May 2026
Orbit: 595 x 948 km, 66.7° (Epoch: 9 June)

Event Time Altitude Azimuth Distance (km) Brightness Sun altitude
Rises 06:46:27 0° 324° (NW) 3,139 9.7 -27.3°
Reaches altitude 10° 06:48:58 10° 318° (NW) 2,157 8.7 -27.2°
Enters shadow 06:51:41 29° 299° (WNW) 1,214 7.1 -27.0°
Maximum altitude 06:53:35 45° 247° (WSW) 889 - -26.9°
Drops below altitude 10° 06:57:49 10° 174° (S) 1,982 - -26.7°
Sets 07:00:04 0° 168° (SSE) 2,855 - -26.5°
